Regional Weather Roundup
Issued by NWS

Home | Current Version | Previous Version | Text Only | Print | Product List | Glossary On
Versions: 1 2 3 4 5 6 7 8 9 10 11 12 13 14 15 16 17 18 19 20 21 22 23 24 25 26 27 28 29 30 31 32 33 34 35 36 37 38 39 40 41 42 43 44 45 46 47 48 49 50
000
ASUS42 KTBW 210110
RWRFL
FLORIDA REGIONAL WEATHER ROUNDUP
NATIONAL WEATHER SERVICE TAMPA BAY RUSKIN FL
900 PM EDT WED AUG 20 2014

NOTE: "FAIR" INDICATES FEW OR NO CLOUDS BELOW 12,000 FEET WITH NO
SIGNIFICANT WEATHER AND/OR OBSTRUCTIONS TO VISIBILITY.


FLZ001>010-012>015-112-114-115-210200-
PANHANDLE FLORIDA

CITY           SKY/WX    TMP DP  RH WIND       PRES   REMARKS
PENSACOLA      MOCLDY    83  73  72 W12       30.04S
PENSACOLA NAS  PTCLDY    83  76  79 W6        30.05R
MILTON NAS     MOCLDY    80  73  79 CALM      30.05R
CRESTVIEW      CLOUDY    78  74  87 CALM      30.07R
DUKE FIELD     MOCLDY    77  74  91 E3        30.06R
VALPARAISO     MOCLDY    78  76  92 CALM      30.06R
MARY ESTHER    CLOUDY    85  73  67 SW8       30.04S
PANAMA CITY    FAIR      80  76  87 SW3       30.05S
TYNDALL AFB    PTCLDY    84  77  80 W6        30.07R
APALACHICOLA   CLEAR     84  75  74 W5        30.06R

STATION/POSITION SKY/WX   TEMP    WIND        PRES    WAVE   SWELL
                          AIR SEA DIR/SP/G            HT/PER HT/PER
                          (F)     (DEG/KT/KT) (MB)    (FT/S) (FT/S)
30.1N   87.6W              85 86  220/ 10/ 12 1017.7S   1/ 3
29.2N   88.2W              86 90  220/  6/  8 1018.4R
28.8N   86.0W              86 88  260/  4/  6 1018.4R   1/ 5   2/ 5
PANAMA CITY BEAC           84 81  250/  8/  9 1017.8R
CAPE SAN BLAS    NOT AVBL
TOWER C                    84     270/  9/  9 1018.2R
28.5N   84.5W              86 87  280/  6/  6 1018.5R   1/ 4   2/ 4

$$
FLZ011-016>038-118-127-128-134-139-239-210200-
NORTH FLORIDA

CITY           SKY/WX    TMP DP  RH WIND       PRES   REMARKS
MARIANNA       MOCLDY    79  75  87 SW3       30.05R
TALLAHASSEE    PTCLDY    84  74  71 W5        30.06R
PERRY          CLEAR     81  77  89 W3        30.06R
CROSS CITY       N/A     82  76  81 SW5       30.06R
GAINESVILLE    PTCLDY    79  75  87 W9        30.06R
MAYPORT NAS    MOCLDY    83  76  79 S8        30.03R
JACKSONVILLE   PTCLDY    83  75  77 CALM      30.03R
JAX NAS        MOCLDY    92  73  53 SW8       30.04R HX 100
JAX CRAIG      MOCLDY    85  75  72 S3        30.03R
JAX CECIL      PTCLDY    81  75  83 CALM      30.04S
FERNANDINA BEA FAIR      84  75  74 CALM      30.02S
ST AUGUSTINE   TSTM      78  72  81 W8        30.08R

STATION/POSITION SKY/WX   TEMP    WIND        PRES    WAVE   SWELL
                          AIR SEA DIR/SP/G            HT/PER HT/PER
                          (F)     (DEG/KT/KT) (MB)    (FT/S) (FT/S)
SHELL POINT                86     280/  3/  5   N/A
KEATON BEACH               86     260/ 12/ 13 1018.0R
CEDAR KEY                  86     270/  6/  8 1018.2R
FERNANDINA                 85 83  150/  4/  6 1016.4R
30.7N   81.3W                 83                N/A     1/11
MAYPORT                    84 83  190/  6/  8   N/A
31.4N   80.9W              85 85  210/ 12/ 14 1016.3R   2/ 3
ST AUGUSTINE               77     310/ 10/ 12 1018.7R

$$
FLZ040-043>046-052-053-057-058-063-144-210200-
INTERIOR CENTRAL FLORIDA

CITY           SKY/WX    TMP DP  RH WIND       PRES   REMARKS
OCALA          PTCLDY    81  72  74 W5        30.08R
LEESBURG       CLEAR     87  73  62 W7        30.07R
SANFORD        PTCLDY    88  72  58 NW6       30.06R
ORLANDO EXEC   CLEAR     90  73  57 W6        30.06R HX  98
ORLANDO INTL   PTCLDY    86  74  67 E12       30.07R THUNDER
KISSIMMEE      PTCLDY    86  75  70 W5        30.07R HX  95
WINTER HAVEN   PTCLDY    86  72  62 NW10      30.07R
LAKELAND       PTCLDY    84  72  65 NW5       30.08R
BARTOW         FAIR      88  72  58 W7        30.07R
OKEECHOBEE       N/A     81  77  89 MISG      30.08R

$$
FLZ041-047-054-059-064-141-147-210200-
EAST CENTRAL FLORIDA

CITY           SKY/WX    TMP DP  RH WIND       PRES   REMARKS
DAYTONA BEACH  PTCLDY    84  75  74 VRB3      30.06R
DELAND         CLEAR     86  73  66 CALM      30.07R
NEW SMYRNA BEA PTCLDY    84  75  74 SE10      30.05R
JFK SPACE CTR  PTCLDY    82 N/A N/A S3        30.06R
TITUSVILLE     PTCLDY    82  75  78 S9        30.06R
CAPE CANAVERAL PTCLDY    83  77  84 S7        30.05R
PATRICK AFB    PTCLDY    84  79  84 S12       30.06S HX  95
MELBOURNE      PTCLDY    84  77  79 S7        30.06R
VERO BEACH     PTCLDY    82  76  81 SE10      30.07R
FT PIERCE      PTCLDY    84  77  79 SE7       30.06S
STUART           N/A     81  77  89 SE3       30.08S

STATION/POSITION SKY/WX   TEMP    WIND        PRES    WAVE   SWELL
                          AIR SEA DIR/SP/G            HT/PER HT/PER
                          (F)     (DEG/KT/KT) (MB)    (FT/S) (FT/S)
28.5N   80.2W              86 87  140/ 14/ 14 1017.7R
28.9N   78.5W              85 86  180/  4/  6 1018.3R   2/ 8   2/ 8
TRIDENT PIER               82 83  160/  4/  7 1017.2S
28.4N   80.5W                 81                N/A     1/ 8
27.6N   80.2W                 83                N/A     1/12

$$
FLZ050-056-061-142-242-148-248-149-249-151-251-155-255-
160-260-210200-
WEST CENTRAL FLORIDA

CITY           SKY/WX    TMP DP  RH WIND       PRES   REMARKS
CRYSTAL RIVER  FAIR      81  73  78 CALM      30.08R
INVERNESS      FAIR      79  68  69 CALM      30.08R
BROOKSVILLE    CLEAR     81  74  79 W3        30.08R
ZEPHYRHILLS    FAIR      81  72  74 W5        30.08R
CLEARWATER     CLEAR     84  76  76 W5        30.07R
TAMPA INTL     PTCLDY    85  74  69 NW5       30.08R
TAMPA EXEC     PTCLDY    81  73  78 CALM      30.08R
MACDILL AFB    PTCLDY    84  77  80 N3        30.08R
ST PETERSBURG  PTCLDY    87  75  67 NW6       30.06R HX  96
SARASOTA       MOCLDY    87  75  67 NW10      30.06R HX  96
VENICE           N/A    N/A N/A N/A MISG        N/A

STATION/POSITION SKY/WX   TEMP    WIND        PRES    WAVE   SWELL
                          AIR SEA DIR/SP/G            HT/PER HT/PER
                          (F)     (DEG/KT/KT) (MB)    (FT/S) (FT/S)
CEDAR KEY                  86     270/  6/  8 1018.2R
28.5N   84.5W              86 87  280/  6/  6 1018.5R   1/ 4   2/ 4
27.3N   84.3W                 89                N/A     1/ 8
CLEARWATER BEACH           86 91  310/  5/  9 1018.0S
MIDDLE TAMPA BAY           86     340/  9/ 11 1018.5R
VENICE                     87 90  320/ 12/ 14 1017.5R

$$
FLZ066-069-070-075>078-162-262-165-265-210200-
SOUTHWEST FLORIDA AND KEYS

CITY           SKY/WX    TMP DP  RH WIND       PRES   REMARKS
PUNTA GORDA    CLOUDY    86  74  67 CALM      30.08R
FT MYERS       CLOUDY    83  73  72 CALM      30.06R
SOUTHWEST INTL CLOUDY    79  73  82 SE7       30.07R
NAPLES         CLOUDY    78  78 100 E6        30.06R
MARCO ISLAND   PTCLDY    77  73  88 NE7       30.07S
MARATHON       PTCLDY    86  77  74 CALM      30.08R HX  97
KEY WEST NAS   MOCLDY    83  73  72 NE3       30.07S
KEY WEST INTL  MOCLDY    84  73  69 E7        30.07S

STATION/POSITION SKY/WX   TEMP    WIND        PRES    WAVE   SWELL
                          AIR SEA DIR/SP/G            HT/PER HT/PER
                          (F)     (DEG/KT/KT) (MB)    (FT/S) (FT/S)
VENICE                     87 90  320/ 12/ 14 1017.5R
NAPLES                     79     100/  5/  7 1018.5F
DRY TORTUGAS               86      90/  5/  6 1017.9F
NW FL BAY                  85     290/  4/  5 1018.3R
SAND KEY                   84      70/  8/ 10 1018.1R
SOMBRERO KEY               85      60/  5/  6 1018.9S
LONG KEY                   85 92  200/  8/ 11 1018.8S
MOLASSES REEF              85 88  120/  6/  7 1018.4R

$$
FLZ067-068-071>074-168-172>174-210200-
SOUTHEAST FLORIDA

CITY           SKY/WX    TMP DP  RH WIND       PRES   REMARKS
W PALM BEACH   PTCLDY    84  75  74 SE6       30.07R
FT LAUDER-EXEC CLEAR     85  77  77 SE7       30.08R HX  95
FT LAUDERDALE  MOCLDY    87  76  69 SE7       30.08R HX  97
POMPANO BEACH  PTCLDY    86  77  74 SE7       30.08R HX  97
PEMBROKE PINES CLEAR     85  74  69 SE6       30.10R
OPA LOCKA      CLEAR     84  75  74 SE6       30.09R
MIAMI          PTCLDY    85  75  72 SE5       30.09R
WEST KENDALL   PTCLDY    83  75  77 W3        30.10R
HOMESTEAD      PTCLDY    85  77  76 VRB3      30.09R HX  96

STATION/POSITION SKY/WX   TEMP    WIND        PRES    WAVE   SWELL
                          AIR SEA DIR/SP/G            HT/PER HT/PER
                          (F)     (DEG/KT/KT) (MB)    (FT/S) (FT/S)
PORT EVERGLADES            86     130/  6/  7 1018.3
VIRGINIA KEY               86 90  150/  3/  6   N/A
LAKE WORTH                 86 87  120/  8/  9 1018.1R
FOWEY ROCKS                86 87  120/  8/  9 1018.5R
SETTLEMENT POINT           86     110/  4/  5 1019.4R

$$



USA.gov is the U.S. government's official web portal to all federal, state and local government web resources and services.